WXM80 ListenWXM80 Stop

You find our weather info also at:

UK Metoffice

WeatherCloud

Weather Underground

Northeastern Weather Network

AWEKAS

Citizen Weather Observer Program (CWOP)

HAMweather, WeatherForYou, PWS Weather


Weather Underground History page Text

Daily Summary for January 15, 2016 Units:  English    Metric   Both
« Previous Day
Next Day »
Daily Weekly Monthly Yearly Custom
  High: Low: Average:
Temperature: 51.2 °F 30.0 °F 40.2 °F
Dew Point: 44.7 °F 24.6 °F 35.6 °F
Humidity: 96 % 71 % 84 %
Wind Speed: 6.8 mph 0.0 mph 1.1 mph
Wind Gust: 9.2 mph - -
Wind:- - ESE
Pressure: 29.94 in 29.53 in -
Precipitation: 0.00 in    
Historical Graphs
 
 
Tabular Data for January 15, 2016
Time Temperature Dew Point Pressure Wind Wind Speed Wind Gust Humidity Rainfall Rate (Hourly)
00:01 33.9 °F 25.8 °F 29.94 in Calm     72 % 0.00 in
00:06 33.9 °F 25.8 °F 29.94 in Calm     72 % 0.00 in
00:11 33.9 °F 25.8 °F 29.94 in Calm     72 % 0.00 in
00:16 33.9 °F 25.8 °F 29.93 in Calm     72 % 0.00 in
00:21 33.9 °F 25.8 °F 29.93 in Calm     72 % 0.00 in
00:26 33.9 °F 25.8 °F 29.93 in Calm     72 % 0.00 in
00:42 33.9 °F 25.5 °F 29.94 in Calm     71 % 0.00 in
00:47 33.8 °F 25.4 °F 29.93 in Calm     71 % 0.00 in
00:52 33.7 °F 25.3 °F 29.93 in Calm     71 % 0.00 in
00:57 33.5 °F 25.4 °F 29.93 in Calm     72 % 0.00 in
01:02 33.5 °F 25.4 °F 29.94 in Calm     72 % 0.00 in
01:07 33.3 °F 25.2 °F 29.93 in Calm     72 % 0.00 in
01:12 33.1 °F 25.1 °F 29.94 in Calm     72 % 0.00 in
01:17 33.0 °F 25.0 °F 29.93 in Calm     72 % 0.00 in
01:22 32.8 °F 25.1 °F 29.93 in Calm     73 % 0.00 in
01:33 32.5 °F 24.8 °F 29.93 in Calm     73 % 0.00 in
01:38 32.3 °F 24.9 °F 29.94 in Calm     74 % 0.00 in
01:43 32.2 °F 24.8 °F 29.94 in Calm     74 % 0.00 in
01:48 32.0 °F 24.6 °F 29.94 in SW 0.2 mph 1.2 mph 74 % 0.00 in
01:53 31.9 °F 24.9 °F 29.93 in SW 0.1 mph 1.0 mph 75 % 0.00 in
01:58 31.9 °F 24.9 °F 29.94 in South 0.2 mph 1.2 mph 75 % 0.00 in
02:03 31.8 °F 24.8 °F 29.93 in South 1.5 mph 2.3 mph 75 % 0.00 in
02:08 31.8 °F 25.1 °F 29.93 in SSE 1.6 mph 3.5 mph 76 % 0.00 in
02:13 31.8 °F 25.1 °F 29.93 in SE 1.4 mph 3.5 mph 76 % 0.00 in
02:19 31.8 °F 25.1 °F 29.93 in Calm     76 % 0.00 in
02:24 31.8 °F 25.1 °F 29.93 in SE 0.6 mph 2.0 mph 76 % 0.00 in
02:29 31.7 °F 25.0 °F 29.93 in Calm     76 % 0.00 in
02:34 31.7 °F 25.0 °F 29.93 in Calm   1.2 mph 76 % 0.00 in
02:39 31.6 °F 24.9 °F 29.93 in Calm     76 % 0.00 in
02:44 31.6 °F 24.9 °F 29.93 in SE 1.2 mph 2.3 mph 76 % 0.00 in
02:49 31.6 °F 24.9 °F 29.93 in Calm   1.2 mph 76 % 0.00 in
02:59 31.6 °F 25.2 °F 29.93 in Calm     77 % 0.00 in
03:04 31.6 °F 25.2 °F 29.93 in SE 0.6 mph 1.0 mph 77 % 0.00 in
03:10 31.6 °F 25.2 °F 29.93 in Calm     77 % 0.00 in
03:15 31.6 °F 25.2 °F 29.94 in Calm     77 % 0.00 in
03:20 31.5 °F 25.1 °F 29.94 in Calm   1.2 mph 77 % 0.00 in
03:25 31.5 °F 25.1 °F 29.94 in Calm     77 % 0.00 in
03:30 31.4 °F 25.0 °F 29.93 in Calm     77 % 0.00 in
03:35 31.4 °F 25.0 °F 29.93 in Calm     77 % 0.00 in
03:40 31.3 °F 25.2 °F 29.93 in Calm     78 % 0.00 in
03:45 31.3 °F 25.2 °F 29.93 in SE 0.6 mph 2.3 mph 78 % 0.00 in
03:50 31.1 °F 25.0 °F 29.93 in Calm     78 % 0.00 in
03:55 31.1 °F 25.0 °F 29.93 in Calm     78 % 0.00 in
04:01 31.0 °F 24.9 °F 29.93 in SE 1.0 mph 2.3 mph 78 % 0.00 in
04:06 30.9 °F 24.8 °F 29.92 in SE 0.1 mph 1.2 mph 78 % 0.00 in
04:11 30.8 °F 24.7 °F 29.92 in SE 1.0 mph 2.3 mph 78 % 0.00 in
04:16 30.7 °F 25.0 °F 29.92 in Calm     79 % 0.00 in
04:21 30.7 °F 25.0 °F 29.92 in Calm     79 % 0.00 in
04:26 30.6 °F 25.2 °F 29.92 in Calm     80 % 0.00 in
04:31 30.6 °F 25.2 °F 29.92 in Calm     80 % 0.00 in
04:36 30.5 °F 25.1 °F 29.92 in Calm     80 % 0.00 in
04:41 30.4 °F 25.3 °F 29.92 in Calm     81 % 0.00 in
04:46 30.3 °F 25.5 °F 29.92 in Calm     82 % 0.00 in
04:52 30.3 °F 25.5 °F 29.92 in Calm     82 % 0.00 in
04:57 30.2 °F 25.4 °F 29.92 in Calm   1.2 mph 82 % 0.00 in
05:02 30.2 °F 25.4 °F 29.92 in Calm     82 % 0.00 in
05:07 30.2 °F 25.7 °F 29.92 in SE 0.1 mph 1.2 mph 83 % 0.00 in
05:12 30.1 °F 25.6 °F 29.92 in Calm     83 % 0.00 in
05:17 30.1 °F 25.6 °F 29.92 in Calm     83 % 0.00 in
05:22 30.1 °F 25.8 °F 29.92 in Calm     84 % 0.00 in
05:27 30.1 °F 25.8 °F 29.92 in SE 0.5 mph 2.3 mph 84 % 0.00 in
05:32 30.0 °F 26.0 °F 29.92 in SE 0.4 mph 2.3 mph 85 % 0.00 in
05:37 30.1 °F 26.1 °F 29.92 in Calm     85 % 0.00 in
05:43 30.0 °F 26.0 °F 29.92 in SE 1.4 mph 2.3 mph 85 % 0.00 in
05:48 30.0 °F 26.3 °F 29.92 in Calm   1.2 mph 86 % 0.00 in
05:53 30.1 °F 26.4 °F 29.93 in SE 0.7 mph 1.2 mph 86 % 0.00 in
05:58 30.1 °F 26.7 °F 29.93 in SE 0.1 mph 1.2 mph 87 % 0.00 in
06:03 30.2 °F 26.8 °F 29.93 in Calm     87 % 0.00 in
06:08 30.3 °F 26.9 °F 29.94 in SE 0.3 mph 1.2 mph 87 % 0.00 in
06:13 30.4 °F 27.3 °F 29.94 in Calm     88 % 0.00 in
06:18 30.5 °F 27.4 °F 29.93 in Calm     88 % 0.00 in
06:23 30.7 °F 27.6 °F 29.93 in Calm     88 % 0.00 in
06:34 31.0 °F 27.9 °F 29.93 in Calm   1.2 mph 88 % 0.00 in
06:39 31.0 °F 27.9 °F 29.93 in SE 0.4 mph 2.3 mph 88 % 0.00 in
06:44 31.1 °F 28.0 °F 29.93 in SW 0.1 mph 1.2 mph 88 % 0.00 in
06:49 31.2 °F 28.1 °F 29.93 in SW 0.6 mph 2.3 mph 88 % 0.00 in
06:54 31.4 °F 28.3 °F 29.93 in SW 0.3 mph 1.2 mph 88 % 0.00 in
06:59 31.5 °F 28.4 °F 29.93 in Calm   1.0 mph 88 % 0.00 in
07:04 31.6 °F 28.5 °F 29.93 in SW 2.1 mph 3.5 mph 88 % 0.00 in
07:09 31.7 °F 28.6 °F 29.92 in SW 2.7 mph 3.5 mph 88 % 0.00 in
07:14 31.9 °F 29.0 °F 29.91 in Calm     89 % 0.00 in
07:19 31.9 °F 29.0 °F 29.92 in SW 1.0 mph 2.3 mph 89 % 0.00 in
07:25 32.1 °F 29.2 °F 29.92 in SSW 1.3 mph 2.0 mph 89 % 0.00 in
07:30 32.2 °F 29.3 °F 29.92 in SSW 0.6 mph 1.2 mph 89 % 0.00 in
07:35 32.4 °F 29.8 °F 29.93 in SSW 0.1 mph   90 % 0.00 in
07:40 32.6 °F 30.0 °F 29.93 in Calm     90 % 0.00 in
07:45 32.7 °F 30.1 °F 29.93 in SSW 0.8 mph 1.2 mph 90 % 0.00 in
07:50 32.8 °F 30.2 °F 29.93 in SSW 0.7 mph 1.2 mph 90 % 0.00 in
07:55 33.0 °F 30.7 °F 29.93 in Calm     91 % 0.00 in
08:00 33.4 °F 31.1 °F 29.93 in Calm     91 % 0.00 in
08:05 33.6 °F 31.3 °F 29.93 in SSW 0.1 mph 1.0 mph 91 % 0.00 in
08:10 33.8 °F 31.5 °F 29.93 in SSW 0.2 mph 1.0 mph 91 % 0.00 in
08:16 33.9 °F 31.6 °F 29.93 in Calm   1.2 mph 91 % 0.00 in
08:21 34.1 °F 31.7 °F 29.93 in Calm     91 % 0.00 in
08:26 34.3 °F 31.9 °F 29.93 in Calm     91 % 0.00 in
08:31 34.5 °F 32.1 °F 29.93 in Calm     91 % 0.00 in
08:36 34.8 °F 32.4 °F 29.93 in Calm     91 % 0.00 in
08:41 34.9 °F 32.3 °F 29.93 in Calm     90 % 0.00 in
08:46 35.1 °F 32.7 °F 29.93 in Calm     91 % 0.00 in
08:51 35.3 °F 32.7 °F 29.92 in Calm     90 % 0.00 in
08:56 35.6 °F 33.0 °F 29.92 in Calm     90 % 0.00 in
09:01 35.9 °F 33.3 °F 29.92 in Calm     90 % 0.00 in
09:07 36.2 °F 33.5 °F 29.92 in Calm     90 % 0.00 in
09:12 36.5 °F 33.8 °F 29.92 in SSW 0.3 mph 1.2 mph 90 % 0.00 in
09:17 37.0 °F 34.3 °F 29.92 in Calm     90 % 0.00 in
09:22 37.4 °F 34.5 °F 29.92 in South 0.8 mph 1.2 mph 89 % 0.00 in
09:27 37.9 °F 34.9 °F 29.92 in South 0.2 mph 1.2 mph 89 % 0.00 in
09:32 38.3 °F 35.1 °F 29.92 in South 0.4 mph 1.2 mph 88 % 0.00 in
09:37 38.6 °F 35.4 °F 29.92 in Calm     88 % 0.00 in
09:42 38.9 °F 35.4 °F 29.92 in Calm     87 % 0.00 in
09:47 39.2 °F 35.7 °F 29.92 in Calm     87 % 0.00 in
09:53 39.6 °F 35.8 °F 29.92 in South 0.2 mph 1.2 mph 86 % 0.00 in
09:58 40.2 °F 35.8 °F 29.91 in South 0.2 mph 1.2 mph 84 % 0.00 in
10:03 40.6 °F 36.1 °F 29.90 in Calm     84 % 0.00 in
10:08 41.1 °F 36.3 °F 29.90 in SSE 0.9 mph 2.3 mph 83 % 0.00 in
10:13 41.6 °F 36.5 °F 29.90 in East 1.9 mph 3.5 mph 82 % 0.00 in
10:18 42.0 °F 36.9 °F 29.90 in East 0.7 mph 2.3 mph 82 % 0.00 in
10:28 42.8 °F 37.4 °F 29.91 in NE 0.8 mph 2.3 mph 81 % 0.00 in
10:38 43.6 °F 37.8 °F 29.90 in NE 1.0 mph 3.5 mph 80 % 0.00 in
10:44 43.8 °F 37.7 °F 29.89 in NE 0.6 mph 3.5 mph 79 % 0.00 in
10:49 44.1 °F 38.0 °F 29.89 in NE 0.6 mph 3.5 mph 79 % 0.00 in
10:54 44.2 °F 37.8 °F 29.89 in NE 1.7 mph 3.5 mph 78 % 0.00 in
10:59 44.3 °F 37.9 °F 29.88 in NE 2.1 mph 3.5 mph 78 % 0.00 in
11:04 44.4 °F 38.0 °F 29.88 in NE 1.3 mph 2.3 mph 78 % 0.00 in
11:09 44.4 °F 37.6 °F 29.87 in NE 1.6 mph 3.5 mph 77 % 0.00 in
11:14 44.4 °F 37.6 °F 29.87 in NE 1.5 mph 3.5 mph 77 % 0.00 in
11:19 44.3 °F 37.5 °F 29.87 in NE 1.7 mph 3.5 mph 77 % 0.00 in
11:24 44.1 °F 37.3 °F 29.87 in NE 2.5 mph 3.5 mph 77 % 0.00 in
11:29 44.0 °F 37.3 °F 29.87 in ENE 1.1 mph 3.5 mph 77 % 0.00 in
11:35 43.9 °F 37.5 °F 29.87 in ENE 0.2 mph 2.3 mph 78 % 0.00 in
11:45 44.2 °F 37.8 °F 29.86 in NNE 1.8 mph 2.3 mph 78 % 0.00 in
11:50 44.6 °F 38.2 °F 29.86 in NNE 1.9 mph 3.5 mph 78 % 0.00 in
11:55 44.9 °F 38.5 °F 29.85 in NNE 0.8 mph 2.0 mph 78 % 0.00 in
12:00 45.0 °F 37.9 °F 29.85 in ENE 0.9 mph 2.3 mph 76 % 0.00 in
12:05 45.2 °F 37.4 °F 29.85 in NE 0.8 mph 2.3 mph 74 % 0.00 in
12:10 45.3 °F 37.5 °F 29.85 in NE 1.4 mph 3.5 mph 74 % 0.00 in
12:15 45.4 °F 37.9 °F 29.84 in NE 1.3 mph 3.5 mph 75 % 0.00 in
12:20 45.6 °F 38.5 °F 29.84 in NE 2.2 mph 3.5 mph 76 % 0.00 in
12:26 45.7 °F 38.6 °F 29.84 in NE 2.7 mph 3.5 mph 76 % 0.00 in
12:31 45.6 °F 38.8 °F 29.83 in ENE 1.6 mph 4.6 mph 77 % 0.00 in
12:36 45.6 °F 39.1 °F 29.83 in NE 2.2 mph 3.5 mph 78 % 0.00 in
12:41 45.4 °F 38.9 °F 29.83 in ENE 3.4 mph 4.6 mph 78 % 0.00 in
12:46 45.3 °F 39.2 °F 29.83 in NE 1.0 mph 2.3 mph 79 % 0.00 in
12:51 45.3 °F 39.5 °F 29.82 in ENE 2.2 mph 3.5 mph 80 % 0.00 in
12:56 45.4 °F 39.6 °F 29.82 in ENE 2.6 mph 3.5 mph 80 % 0.00 in
13:01 45.5 °F 39.7 °F 29.82 in NE 0.7 mph 3.5 mph 80 % 0.00 in
13:06 45.7 °F 40.2 °F 29.82 in NE 1.1 mph 3.5 mph 81 % 0.00 in
13:11 45.9 °F 40.4 °F 29.81 in Calm   2.3 mph 81 % 0.00 in
13:17 46.3 °F 40.8 °F 29.81 in NNE 0.9 mph 1.2 mph 81 % 0.00 in
13:27 47.1 °F 40.6 °F 29.81 in SW 0.9 mph 5.8 mph 78 % 0.00 in
13:32 48.0 °F 40.8 °F 29.82 in SSE 2.9 mph 5.8 mph 76 % 0.00 in
13:37 48.7 °F 41.1 °F 29.82 in SSW 4.3 mph 8.0 mph 75 % 0.00 in
13:42 49.3 °F 41.4 °F 29.82 in South 1.3 mph 4.6 mph 74 % 0.00 in
13:47 49.9 °F 41.6 °F 29.82 in South 3.3 mph 7.0 mph 73 % 0.00 in
13:52 50.4 °F 42.1 °F 29.82 in SSW 4.5 mph 6.9 mph 73 % 0.00 in
13:57 50.8 °F 42.5 °F 29.82 in SSW 3.4 mph 6.9 mph 73 % 0.00 in
14:08 51.2 °F 42.1 °F 29.80 in South 0.5 mph 2.0 mph 71 % 0.00 in
14:13 51.2 °F 42.5 °F 29.80 in NW 0.8 mph 2.3 mph 72 % 0.00 in
14:18 51.1 °F 42.4 °F 29.80 in NE 2.8 mph 4.0 mph 72 % 0.00 in
14:23 50.8 °F 42.5 °F 29.80 in NNE 1.7 mph 3.5 mph 73 % 0.00 in
14:28 50.5 °F 42.2 °F 29.79 in NNE 2.4 mph 3.5 mph 73 % 0.00 in
14:33 50.3 °F 42.3 °F 29.79 in Calm   2.3 mph 74 % 0.00 in
14:38 50.0 °F 42.4 °F 29.78 in NNE 2.5 mph 4.0 mph 75 % 0.00 in
14:43 49.7 °F 42.4 °F 29.78 in NE 1.3 mph 2.3 mph 76 % 0.00 in
14:48 49.4 °F 42.5 °F 29.78 in ENE 2.2 mph 2.3 mph 77 % 0.00 in
14:53 49.0 °F 42.4 °F 29.78 in NNE 0.7 mph 3.5 mph 78 % 0.00 in
14:59 48.6 °F 42.4 °F 29.78 in ENE 2.2 mph 3.5 mph 79 % 0.00 in
15:04 48.2 °F 42.3 °F 29.78 in ENE 1.8 mph 4.0 mph 80 % 0.00 in
15:09 47.8 °F 42.3 °F 29.77 in ENE 3.6 mph 5.8 mph 81 % 0.00 in
15:14 47.2 °F 42.0 °F 29.77 in ENE 1.9 mph 3.5 mph 82 % 0.00 in
15:19 46.9 °F 42.0 °F 29.76 in East 2.8 mph 4.6 mph 83 % 0.00 in
15:24 46.5 °F 41.9 °F 29.76 in ENE 2.1 mph 3.5 mph 84 % 0.00 in
15:29 46.2 °F 41.9 °F 29.75 in East 2.7 mph 4.6 mph 85 % 0.00 in
15:44 45.7 °F 41.8 °F 29.74 in East 2.2 mph 4.6 mph 86 % 0.00 in
15:50 45.5 °F 41.6 °F 29.74 in ENE 2.6 mph 3.5 mph 86 % 0.00 in
15:55 45.4 °F 41.8 °F 29.72 in East 2.8 mph 4.6 mph 87 % 0.00 in
16:00 45.3 °F 41.7 °F 29.72 in East 1.5 mph 3.5 mph 87 % 0.00 in
16:05 45.2 °F 41.6 °F 29.72 in Calm   1.2 mph 87 % 0.00 in
16:10 45.2 °F 41.6 °F 29.72 in Calm     87 % 0.00 in
16:15 45.1 °F 41.2 °F 29.72 in Calm     86 % 0.00 in
16:20 45.1 °F 41.2 °F 29.72 in SSE 1.7 mph 3.5 mph 86 % 0.00 in
16:26 45.0 °F 41.1 °F 29.73 in SSE 2.1 mph 4.6 mph 86 % 0.00 in
16:31 45.1 °F 41.2 °F 29.73 in SSE 0.3 mph 3.5 mph 86 % 0.00 in
16:36 45.3 °F 41.4 °F 29.73 in SSE 2.8 mph 4.0 mph 86 % 0.00 in
16:41 45.6 °F 42.0 °F 29.74 in SSE 5.7 mph 8.1 mph 87 % 0.00 in
16:46 46.2 °F 42.5 °F 29.74 in SE 2.9 mph 3.5 mph 87 % 0.00 in
16:51 46.5 °F 42.5 °F 29.74 in SSE 1.9 mph 6.0 mph 86 % 0.00 in
16:56 46.8 °F 42.8 °F 29.74 in South 1.2 mph 3.5 mph 86 % 0.00 in
17:01 47.2 °F 43.2 °F 29.75 in SE 2.3 mph 5.8 mph 86 % 0.00 in
17:07 47.4 °F 43.4 °F 29.75 in SE 2.3 mph 4.6 mph 86 % 0.00 in
17:17 47.6 °F 43.6 °F 29.75 in SSE 3.1 mph 8.0 mph 86 % 0.00 in
17:22 47.7 °F 43.7 °F 29.76 in South 3.1 mph 5.0 mph 86 % 0.00 in
17:27 47.8 °F 43.8 °F 29.76 in SSE 1.1 mph 4.6 mph 86 % 0.00 in
17:32 47.9 °F 43.9 °F 29.76 in SSE 1.6 mph 5.8 mph 86 % 0.00 in
17:37 48.0 °F 44.3 °F 29.77 in SSE 3.5 mph 5.8 mph 87 % 0.00 in
17:47 48.1 °F 44.4 °F 29.77 in South 1.8 mph 3.5 mph 87 % 0.00 in
17:52 48.0 °F 44.3 °F 29.77 in SSE 1.1 mph 4.6 mph 87 % 0.00 in
17:58 48.1 °F 44.4 °F 29.77 in SSE 1.8 mph 2.3 mph 87 % 0.00 in
18:03 48.0 °F 44.6 °F 29.76 in SSE 1.3 mph 3.5 mph 88 % 0.00 in
18:13 47.9 °F 44.5 °F 29.77 in SE 1.6 mph 3.5 mph 88 % 0.00 in
18:18 47.9 °F 44.5 °F 29.76 in SE 1.6 mph 2.3 mph 88 % 0.00 in
18:23 47.9 °F 44.5 °F 29.76 in SE 1.5 mph 3.5 mph 88 % 0.00 in
18:28 47.8 °F 44.7 °F 29.75 in SE 2.1 mph 3.5 mph 89 % 0.00 in
18:33 47.8 °F 44.7 °F 29.75 in SSE 2.6 mph 3.5 mph 89 % 0.00 in
18:38 47.8 °F 44.7 °F 29.75 in SSE 1.3 mph 3.5 mph 89 % 0.00 in
18:43 47.7 °F 44.3 °F 29.75 in SSE 1.1 mph 2.3 mph 88 % 0.00 in
18:49 47.8 °F 44.7 °F 29.74 in SSE 0.6 mph 3.5 mph 89 % 0.00 in
18:54 47.8 °F 44.7 °F 29.74 in SE 2.3 mph 5.0 mph 89 % 0.00 in
18:59 47.8 °F 44.7 °F 29.74 in SSE 0.5 mph 3.5 mph 89 % 0.00 in
19:04 47.8 °F 44.7 °F 29.74 in SSE 0.4 mph 1.2 mph 89 % 0.00 in
19:09 47.8 °F 44.7 °F 29.74 in SSE 1.1 mph 3.5 mph 89 % 0.00 in
19:14 47.8 °F 44.7 °F 29.74 in SSE 0.7 mph 2.3 mph 89 % 0.00 in
19:19 47.7 °F 44.6 °F 29.73 in SSE 0.4 mph 2.3 mph 89 % 0.00 in
19:24 47.8 °F 44.7 °F 29.72 in Calm   2.3 mph 89 % 0.00 in
19:29 47.7 °F 44.3 °F 29.71 in SSE 0.6 mph 1.2 mph 88 % 0.00 in
19:34 47.7 °F 44.6 °F 29.70 in SSE 0.8 mph 1.2 mph 89 % 0.00 in
19:40 47.6 °F 44.2 °F 29.70 in SE 0.7 mph 2.3 mph 88 % 0.00 in
19:45 47.5 °F 44.1 °F 29.70 in SE 1.1 mph 1.2 mph 88 % 0.00 in
19:50 47.4 °F 44.0 °F 29.70 in SE 1.1 mph 2.3 mph 88 % 0.00 in
19:55 47.2 °F 43.8 °F 29.70 in Calm     88 % 0.00 in
20:00 47.1 °F 43.7 °F 29.70 in Calm     88 % 0.00 in
20:10 46.8 °F 43.4 °F 29.70 in Calm     88 % 0.00 in
20:15 46.5 °F 43.1 °F 29.70 in Calm     88 % 0.00 in
20:20 46.4 °F 43.0 °F 29.69 in SE 0.4 mph 1.2 mph 88 % 0.00 in
20:25 46.2 °F 42.8 °F 29.69 in Calm   1.2 mph 88 % 0.00 in
20:31 46.0 °F 42.6 °F 29.68 in Calm     88 % 0.00 in
20:36 45.8 °F 42.7 °F 29.68 in NE 0.2 mph 1.2 mph 89 % 0.00 in
20:41 45.6 °F 42.5 °F 29.68 in NE 0.2 mph 1.2 mph 89 % 0.00 in
20:46 45.4 °F 42.3 °F 29.67 in Calm     89 % 0.00 in
20:51 45.3 °F 42.5 °F 29.67 in Calm     90 % 0.00 in
20:56 45.1 °F 42.1 °F 29.67 in Calm     89 % 0.00 in
21:01 45.0 °F 42.2 °F 29.66 in Calm     90 % 0.00 in
21:06 44.8 °F 42.0 °F 29.65 in NE 1.1 mph 2.3 mph 90 % 0.00 in
21:11 44.7 °F 41.9 °F 29.65 in NE 0.2 mph 1.2 mph 90 % 0.00 in
21:16 44.6 °F 41.8 °F 29.66 in Calm   2.3 mph 90 % 0.00 in
21:22 44.5 °F 42.0 °F 29.66 in Calm     91 % 0.00 in
21:32 44.4 °F 41.9 °F 29.64 in NE 1.0 mph 3.5 mph 91 % 0.00 in
21:37 44.3 °F 42.1 °F 29.64 in NE 0.1 mph 2.0 mph 92 % 0.00 in
21:42 44.3 °F 42.1 °F 29.62 in NE 2.6 mph 3.5 mph 92 % 0.00 in
21:47 44.3 °F 42.4 °F 29.61 in NNE 3.2 mph 4.6 mph 93 % 0.00 in
21:57 44.3 °F 42.4 °F 29.60 in NE 6.1 mph 7.0 mph 93 % 0.00 in
22:07 44.3 °F 42.7 °F 29.59 in NE 4.2 mph 6.9 mph 94 % 0.00 in
22:13 44.3 °F 42.7 °F 29.59 in NNE 2.7 mph 4.6 mph 94 % 0.00 in
22:18 44.3 °F 42.7 °F 29.60 in NE 2.4 mph 6.9 mph 94 % 0.00 in
22:23 44.3 °F 43.0 °F 29.59 in ENE 2.2 mph 4.6 mph 95 % 0.00 in
22:28 44.4 °F 43.1 °F 29.60 in East 3.0 mph 4.6 mph 95 % 0.00 in
22:33 44.4 °F 43.1 °F 29.61 in ESE 3.3 mph 5.0 mph 95 % 0.00 in
22:38 44.5 °F 43.2 °F 29.61 in East 5.5 mph 8.1 mph 95 % 0.00 in
22:43 44.5 °F 43.2 °F 29.60 in East 3.9 mph 5.8 mph 95 % 0.00 in
22:53 44.4 °F 43.1 °F 29.59 in ENE 2.9 mph 3.5 mph 95 % 0.00 in
22:58 44.2 °F 42.9 °F 29.58 in ENE 1.3 mph 2.3 mph 95 % 0.00 in
23:04 44.1 °F 42.8 °F 29.57 in ENE 2.3 mph 3.0 mph 95 % 0.00 in
23:09 44.0 °F 42.7 °F 29.57 in ENE 2.7 mph 4.6 mph 95 % 0.00 in
23:14 43.9 °F 42.6 °F 29.56 in East 2.6 mph 4.6 mph 95 % 0.00 in
23:19 43.9 °F 42.6 °F 29.56 in East 3.4 mph 5.0 mph 95 % 0.00 in
23:24 43.9 °F 42.6 °F 29.55 in East 5.6 mph 6.9 mph 95 % 0.00 in
23:29 43.9 °F 42.6 °F 29.55 in East 3.3 mph 5.0 mph 95 % 0.00 in
23:34 43.8 °F 42.5 °F 29.55 in East 6.3 mph 9.2 mph 95 % 0.00 in
23:44 43.7 °F 42.6 °F 29.54 in ENE 3.2 mph 5.8 mph 96 % 0.00 in
23:49 43.6 °F 42.5 °F 29.54 in East 5.9 mph 8.1 mph 96 % 0.00 in
23:55 43.6 °F 42.5 °F 29.53 in East 6.8 mph 7.0 mph 96 % 0.00 in
Crab Meadow Weather
Compliments of Weather Underground - 2.75 mb

Script developed by  Jim McMurry - jmcmurry@mwt.net Adapted for the template by  Wim van der Kuil - Leuven-Template.eu

Recycling: A used aluminum can is recycled and back on the grocery shelf as a new can, in as little as 60 days.